Wind_Speed
20 26 29 34 33 40 42 38 41 46 49 50 48 46 53 51 54 52 50 54 56 58 56 58 61 58 66 64 61 62 61 62 69 71 75 79 78 79 74 76 74 65 62 68 65 70 69
25 29 34 37 40 43 41 41 45 49 48 47 53 56 56 53 57 57 60 61 63 61 65 66 70 70 74 69 75 78 71 70 75 76 82 85 85 88 84 82 83 79 75 71 68 70 74
28 33 40 41 40 41 42 43 48 51 52 54 57 59 59 60 67 65 68 70 71 70 69 72 78 80 79 80 84 85 85 85 85 89 90 92 95 97 95 94 88 88 82 81 72 76 75
32 38 35 38 39 39 43 47 49 52 54 53 57 60 60 67 70 73 76 79 75 77 75 82 85 90 84 86 89 91 97 98 99 97 99 104 105 104 102 101 95 95 89 81 81 79 83
35 36 38 38 39 42 45 49 51 58 58 59 65 66 68 73 77 79 81 81 81 82 86 92 92 96 94 95 99 101 104 107 111 112 113 113 113 111 110 102 102 94 89 90 92 89 88
38 40 46 42 43 46 50 53 55 60 62 65 68 73 79 83 85 86 87 86 86 89 92 97 101 103 104 110 108 109 115 115 117 118 117 111 116 116 108 102 94 95 102 100 98 100 98
39 45 44 45 48 51 54 57 61 63 68 71 77 83 86 92 95 93 93 94 97 99 97 102 108 112 116 119 117 118 123 122 118 115 108 110 116 107 97 94 94 105 104 103 99 105 102
42 44 45 47 53 55 58 62 67 70 76 80 87 92 96 99 100 100 102 105 106 105 100 107 121 123 123 123 116 126 122 116 117 110 105 107 103 88 87 96 104 100 101 96 101 104 104
44 48 49 52 58 63 67 65 69 77 83 84 95 96 102 105 104 108 108 110 111 111 120 123 127 124 126 113 110 104 104 105 100 100 98 102 89 80 90 94 94 90 88 88 96 103 101
49 54 57 60 66 67 69 72 77 84 88 93 101 103 105 109 112 111 114 116 119 124 132 135 126 121 107 103 92 90 87 92 92 92 92 94 74 82 81 84 84 78 78 86 91 97 91
51 57 59 63 67 68 73 77 83 88 90 99 103 108 113 120 115 117 119 121 130 136 141 131 129 112 98 95 77 78 88 88 86 83 88 82 79 81 78 73 73 74 78 85 88 88 88
55 57 61 66 69 76 79 84 91 92 99 102 109 116 118 121 120 121 126 132 136 137 133 127 114 100 91 91 80 75 87 80 84 81 83 79 79 83 76 74 75 75 76 83 84 82 86
55 61 66 69 74 80 82 86 92 100 102 112 118 121 123 121 126 128 135 140 143 138 132 114 100 95 95 83 81 72 71 71 68 68 71 71 72 78 77 76 76 72 75 76 76 74 64
63 66 70 76 81 85 86 92 99 102 109 118 124 126 124 125 131 135 139 143 143 140 121 108 101 94 86 74 70 62 59 56 58 55 55 57 60 68 74 76 74 72 74 75 67 65 60
67 69 76 83 86 87 92 97 103 108 118 125 127 128 130 130 138 141 143 145 142 128 112 106 93 81 77 66 58 59 54 48 49 49 50 50 54 60 65 72 75 75 72 64 70 65 56
70 73 81 83 89 95 97 103 108 118 126 130 129 128 132 137 143 144 147 145 135 116 111 100 85 75 70 64 58 56 47 42 39 43 46 45 50 52 56 66 72 73 70 68 61 58 52
74 77 82 87 92 98 102 108 115 124 131 132 132 133 134 142 143 147 143 138 120 115 106 91 81 74 69 62 53 49 44 39 36 38 39 41 44 47 54 63 66 67 68 65 60 53 44
76 79 85 89 94 102 105 113 122 129 130 129 133 134 138 143 147 146 141 127 116 112 96 87 79 72 63 57 50 45 41 36 35 36 33 37 41 48 52 57 63 67 70 65 63 54 48
79 85 88 91 97 102 110 118 128 131 140 135 135 133 133 142 146 144 136 120 114 101 90 83 75 67 58 52 46 38 36 35 33 32 31 32 41 47 52 56 62 68 64 58 46 42 38
83 87 93 96 102 110 117 126 133 139 139 138 135 133 136 148 149 143 124 116 111 95 87 79 69 59 53 45 41 31 29 30 30 29 30 36 42 46 51 55 56 56 52 47 42 39 39
88 91 94 101 108 113 124 131 136 143 137 141 135 134 147 149 145 131 120 114 104 91 82 72 64 54 49 42 35 27 25 22 23 25 27 36 38 43 45 45 49 51 49 45 41 39 43
91 97 103 104 110 119 127 135 143 142 144 141 140 140 146 148 143 123 117 114 97 89 77 67 59 51 45 38 31 26 22 18 18 21 24 32 35 38 39 40 43 48 47 46 45 47 53
99 95 102 107 117 125 133 139 146 146 143 141 139 145 147 144 138 120 116 108 91 81 72 61 54 46 41 34 27 22 18 15 19 20 24 29 33 37 37 39 43 48 47 49 50 51 50
96 102 104 114 119 128 137 144 146 144 147 142 139 146 145 139 127 117 113 98 86 76 66 56 49 43 37 32 25 22 17 17 21 23 27 31 33 36 39 42 47 49 50 51 51 53 53
99 105 110 118 125 133 141 149 146 148 144 138 142 145 137 132 119 113 108 90 81 70 62 53 45 39 33 28 24 19 11 15 18 24 27 32 35 38 40 41 44 49 51 52 53 52 50
102 109 115 121 130 137 146 146 148 142 141 138 147 141 137 123 115 110 98 84 75 66 58 50 42 35 29 25 19 16 9 11 18 24 28 36 40 42 44 50 49 51 55 52 51 50 51
110 112 116 124 131 140 148 149 144 138 144 142 143 141 130 117 110 105 90 80 70 62 53 45 39 33 25 22 16 14 7 10 20 24 28 35 41 44 46 51 53 53 50 49 49 50 53
107 111 122 126 136 143 150 148 149 140 146 143 141 136 123 114 108 98 84 76 66 59 51 42 36 30 25 20 12 10 4 11 21 27 30 37 41 45 47 54 57 53 51 50 52 51 51
109 118 122 129 138 145 148 146 146 141 143 141 137 130 118 112 105 94 80 74 63 56 47 39 34 29 23 17 9 6 5 11 20 29 32 39 36 41 46 51 57 58 56 54 53 52 51
Wind_Direction
325 333 335 332 329 334 333 330 330 330 325 322 321 314 311 312 314 310 317 315 316 311 312 312 316 311 316 317 288 294 283 286 282 279 281 286 284 283 282 274 277 275 266 262 255 253 252
329 329 330 331 329 330 330 328 326 329 323 321 321 316 315 312 316 313 317 318 316 314 313 312 308 312 317 312 303 305 297 288 286 282 282 283 284 281 280 279 274 273 267 265 264 254 252
327 328 329 327 329 330 330 326 323 324 324 322 315 315 315 313 318 322 320 316 317 316 313 310 313 312 315 303 303 302 301 297 290 287 284 282 280 277 276 273 273 271 267 263 264 258 251
326 325 331 329 329 327 327 327 324 323 321 317 316 309 316 322 324 320 318 318 317 318 313 314 312 311 312 307 302 299 300 297 290 285 281 277 276 275 273 270 268 268 264 264 266 260 252
323 328 325 322 325 325 324 322 320 320 320 315 323 315 318 317 318 320 320 318 318 317 314 312 310 310 309 307 304 303 297 292 287 283 279 277 274 274 270 267 264 263 265 264 258 259 253
320 323 324 324 324 323 320 320 315 318 316 320 323 324 324 321 323 320 321 318 316 315 314 309 309 310 308 309 306 299 293 289 283 283 280 278 273 270 265 264 266 267 260 255 253 254 248
321 320 323 323 324 323 321 320 319 315 317 318 326 325 324 326 326 325 321 320 320 316 310 306 308 309 309 308 303 298 293 288 285 280 277 271 268 267 270 269 267 259 254 254 253 252 248
321 328 327 328 328 324 319 317 313 314 321 327 325 325 325 325 321 320 321 320 317 315 312 308 312 311 307 303 299 294 291 286 281 278 272 268 267 271 267 259 255 251 251 250 251 251 250
321 324 324 325 327 325 325 319 318 323 327 326 327 329 328 328 322 323 320 319 318 316 314 310 312 309 305 299 294 289 284 280 277 273 271 268 267 262 257 255 257 255 254 252 249 250 248
317 319 320 323 323 324 322 323 324 327 325 325 329 329 327 327 323 323 323 321 318 317 315 314 315 308 302 295 290 285 280 273 271 270 268 266 268 261 257 255 254 255 253 249 248 249 247
320 319 321 323 321 322 321 326 326 326 323 325 329 329 330 329 326 324 322 320 318 318 318 317 314 309 303 296 289 287 278 274 268 267 266 265 261 261 256 254 253 250 248 247 247 248 245
323 325 323 322 324 324 322 326 326 324 325 328 331 330 331 328 326 324 322 320 319 318 319 318 314 310 303 299 294 281 275 272 269 265 263 260 257 257 254 251 246 245 244 245 246 245 243
322 323 322 323 326 325 326 326 326 326 327 331 330 332 330 329 326 322 322 321 321 321 321 318 314 310 305 301 293 288 279 275 271 265 262 258 252 250 250 248 244 242 242 245 246 246 247
322 324 324 327 328 326 324 324 326 328 333 332 330 331 329 326 326 325 323 321 324 324 321 319 317 313 307 300 294 290 282 280 274 267 258 254 250 246 243 243 245 241 241 243 244 243 239
323 323 327 329 328 325 326 326 328 331 333 332 331 330 327 328 327 325 323 324 326 324 322 320 319 314 308 304 297 292 288 283 274 265 256 249 245 243 239 238 239 237 237 242 239 238 234
324 324 326 326 324 325 323 326 329 332 334 332 331 327 328 327 326 324 326 329 326 325 324 323 320 317 310 307 303 297 292 281 271 261 250 243 240 241 238 235 235 235 234 236 237 235 229
327 326 326 324 325 323 324 328 331 333 335 333 330 327 329 328 325 327 329 329 327 327 326 323 322 317 312 310 308 300 293 283 271 258 248 241 237 234 230 230 230 230 230 230 231 228 223
328 324 323 323 322 323 327 331 332 334 334 333 332 330 329 327 327 330 331 328 328 328 326 324 322 317 314 312 308 300 291 284 274 260 244 238 230 227 226 227 227 227 228 226 226 222 219
325 322 324 322 320 325 331 330 333 335 333 333 332 332 330 328 329 330 332 330 330 329 326 324 321 318 315 310 305 299 287 279 269 258 243 230 228 223 222 221 222 223 225 225 221 220 223
325 326 322 320 323 329 329 331 333 335 333 334 333 331 330 328 331 333 332 331 332 329 328 323 321 320 312 309 303 299 284 273 266 252 238 227 227 223 221 221 222 222 221 217 212 212 216
323 321 318 322 327 330 331 332 334 333 333 334 331 331 331 332 333 333 332 333 332 329 328 325 322 320 312 310 304 294 277 264 262 249 232 225 223 224 221 221 220 218 213 207 206 209 214
318 317 323 325 328 327 330 332 333 334 333 332 331 334 332 332 335 335 333 333 332 330 329 326 322 320 314 312 306 293 277 262 248 233 222 220 219 218 216 215 212 211 207 204 207 209 213
314 322 323 325 327 327 330 333 332 332 333 332 334 332 332 333 334 335 334 333 332 331 328 326 324 320 316 313 305 292 271 244 225 210 202 207 210 208 206 205 204 201 200 202 207 209 210
316 320 322 323 325 328 333 332 333 333 334 334 332 332 333 334 334 334 334 333 333 332 329 328 325 322 318 313 305 287 269 238 221 205 192 199 201 199 198 195 199 195 196 200 205 207 207
317 319 320 323 325 330 332 331 331 333 334 333 332 331 335 335 334 335 333 333 334 333 331 330 328 324 320 313 304 291 279 250 221 212 189 190 192 193 194 189 191 192 193 197 202 205 205
316 317 322 324 326 330 331 332 332 334 332 332 331 331 336 336 334 335 335 335 336 334 333 331 328 325 322 317 307 295 267 216 220 213 191 187 188 187 186 185 182 188 193 195 200 201 203
316 319 321 323 325 328 329 333 333 333 333 332 331 333 335 336 335 336 336 337 336 336 333 332 332 329 323 322 313 298 278 213 207 196 194 191 189 187 184 179 178 188 192 194 198 200 203
316 318 321 322 326 328 331 333 333 332 333 332 331 333 335 335 335 338 336 338 337 337 336 335 336 333 328 327 315 294 259 204 200 186 191 193 192 184 181 180 175 182 189 190 195 200 204
316 320 320 325 326 327 331 331 332 335 331 331 333 333 335 335 336 339 338 340 339 339 336 338 340 336 330 329 321 275 208 209 193 182 187 192 188 185 184 172 173 183 185 189 192 197 202
Height
10781 10778 10775 10772 10769 10765 10761 10757 10754 10750 10744 10738 10733 10727 10722 10716 10709 10702 10694 10687 10678 10670 10660 10653 10647 10643 10638 10632 10611 10613 10610 10608 10601 10597 10595 10591 10590 10587 10592 10590 10591 10602 10602 10601 10605 10606 10612
10778 10775 10771 10767 10764 10760 10756 10752 10747 10742 10737 10732 10726 10717 10711 10705 10699 10688 10677 10667 10660 10651 10640 10631 10625 10619 10615 10612 10595 10587 10586 10588 10581 10577 10572 10566 10563 10560 10563 10568 10571 10574 10577 10581 10586 10590 10593
10774 10771 10767 10763 10758 10754 10749 10744 10738 10733 10728 10723 10717 10709 10700 10693 10683 10672 10660 10647 10640 10631 10619 10608 10598 10592 10597 10582 10571 10561 10557 10555 10552 10547 10544 10538 10534 10530 10536 10534 10544 10547 10552 10556 10566 10566 10571
10769 10766 10761 10756 10752 10747 10742 10736 10730 10724 10719 10714 10706 10696 10685 10675 10667 10658 10644 10629 10619 10609 10596 10586 10577 10568 10572 10562 10547 10536 10529 10525 10514 10515 10514 10507 10501 10498 10502 10503 10511 10513 10519 10534 10547 10539 10544
10764 10760 10755 10751 10746 10740 10734 10728 10722 10714 10707 10700 10693 10683 10670 10658 10646 10636 10625 10611 10598 10589 10574 10560 10551 10541 10538 10533 10523 10511 10500 10488 10476 10471 10469 10468 10462 10461 10458 10472 10474 10487 10500 10503 10505 10510 10512
10757 10753 10748 10742 10737 10732 10726 10719 10711 10702 10693 10684 10675 10662 10651 10638 10627 10616 10603 10591 10576 10569 10552 10532 10524 10511 10504 10490 10490 10478 10458 10449 10438 10431 10428 10430 10412 10407 10425 10437 10454 10469 10458 10464 10475 10476 10475
10751 10746 10740 10735 10729 10723 10716 10708 10699 10689 10678 10668 10655 10643 10631 10614 10600 10589 10579 10568 10557 10547 10533 10507 10489 10485 10466 10457 10450 10435 10408 10396 10390 10386 10391 10381 10359 10376 10406 10420 10427 10408 10416 10430 10446 10440 10448
10744 10738 10733 10726 10720 10713 10704 10695 10684 10674 10660 10647 10638 10624 10609 10592 10578 10564 10551 10538 10530 10517 10511 10483 10468 10447 10436 10422 10418 10381 10363 10352 10332 10338 10340 10332 10334 10375 10374 10359 10350 10371 10381 10404 10410 10413 10416
10736 10730 10723 10717 10709 10701 10691 10682 10671 10658 10642 10629 10617 10603 10586 10572 10554 10540 10525 10510 10491 10478 10461 10453 10438 10417 10392 10377 10360 10347 10323 10304 10306 10299 10300 10286 10317 10334 10317 10319 10326 10349 10364 10381 10380 10375 10389
10727 10720 10713 10705 10697 10688 10678 10667 10654 10639 10624 10610 10597 10583 10564 10552 10531 10514 10494 10477 10457 10441 10421 10397 10391 10368 10348 10323 10313 10296 10285 10272 10267 10263 10261 10257 10300 10284 10293 10297 10308 10326 10344 10339 10346 10345 10369
10716 10710 10701 10693 10684 10674 10662 10651 10638 10620 10606 10592 10577 10560 10541 10518 10505 10482 10466 10446 10425 10399 10373 10359 10326 10313 10296 10274 10278 10264 10235 10233 10233 10237 10230 10249 10256 10256 10262 10281 10291 10300 10306 10309 10316 10324 10335
10706 10698 10689 10680 10670 10658 10647 10633 10617 10604 10588 10572 10554 10536 10516 10493 10471 10454 10432 10411 10390 10362 10337 10308 10288 10269 10253 10230 10231 10224 10198 10204 10196 10203 10201 10215 10221 10222 10241 10252 10258 10271 10280 10285 10293 10305 10302
10695 10686 10676 10666 10654 10643 10628 10615 10601 10586 10570 10551 10530 10512 10489 10468 10450 10424 10401 10371 10349 10322 10297 10273 10254 10232 10210 10204 10183 10180 10171 10166 10170 10174 10176 10185 10193 10196 10211 10222 10232 10249 10256 10264 10275 10286 10310
10683 10673 10662 10651 10638 10625 10612 10597 10585 10570 10552 10531 10507 10486 10463 10444 10420 10396 10368 10340 10313 10286 10255 10233 10215 10196 10173 10167 10151 10148 10144 10145 10142 10147 10150 10158 10166 10170 10184 10196 10213 10228 10235 10245 10263 10279 10297
10671 10660 10648 10635 10622 10608 10595 10582 10569 10552 10535 10510 10482 10459 10441 10418 10392 10362 10335 10307 10278 10252 10224 10202 10185 10164 10143 10137 10131 10121 10120 10123 10121 10124 10127 10136 10143 10150 10163 10174 10185 10202 10213 10242 10240 10256 10276
10658 10647 10634 10620 10607 10592 10577 10564 10550 10532 10509 10487 10464 10441 10420 10392 10363 10332 10303 10274 10247 10218 10195 10171 10154 10139 10122 10114 10108 10099 10100 10100 10102 10101 10107 10118 10125 10136 10147 10155 10167 10183 10204 10213 10230 10243 10261
10643 10631 10619 10604 10590 10575 10562 10547 10530 10511 10489 10466 10442 10416 10392 10365 10334 10304 10276 10247 10218 10192 10169 10148 10132 10116 10102 10093 10090 10084 10080 10081 10084 10087 10093 10100 10110 10122 10128 10133 10146 10166 10181 10196 10211 10230 10248
10628 10616 10603 10588 10573 10558 10544 10529 10511 10491 10469 10445 10422 10394 10365 10337 10308 10278 10249 10219 10196 10171 10147 10128 10112 10096 10085 10077 10073 10070 10065 10065 10069 10073 10081 10088 10098 10104 10114 10123 10136 10152 10160 10177 10192 10215 10233
10615 10602 10588 10572 10557 10542 10529 10512 10492 10468 10447 10426 10404 10378 10351 10314 10284 10257 10227 10197 10173 10150 10128 10111 10094 10081 10070 10063 10059 10059 10055 10054 10057 10061 10068 10077 10083 10091 10098 10111 10121 10130 10149 10171 10197 10213 10231
10599 10585 10571 10555 10541 10528 10511 10493 10471 10449 10425 10402 10375 10351 10326 10284 10254 10228 10201 10175 10154 10130 10113 10093 10080 10069 10056 10052 10047 10048 10045 10045 10046 10051 10056 10062 10068 10078 10087 10100 10113 10130 10149 10168 10187 10203 10217
10584 10570 10554 10538 10525 10511 10492 10473 10453 10431 10403 10379 10353 10327 10293 10263 10238 10210 10179 10156 10134 10115 10097 10080 10064 10056 10045 10040 10038 10037 10035 10036 10037 10040 10046 10050 10060 10069 10083 10097 10109 10123 10142 10161 10178 10194 10200
10569 10554 10540 10526 10510 10494 10476 10453 10428 10409 10384 10355 10332 10304 10276 10241 10213 10188 10160 10139 10119 10097 10082 10066 10054 10044 10035 10031 10029 10027 10026 10028 10029 10034 10038 10044 10054 10064 10077 10090 10103 10118 10136 10153 10167 10176 10179
10554 10542 10529 10513 10496 10477 10459 10439 10415 10388 10365 10334 10302 10279 10252 10217 10197 10171 10145 10124 10105 10088 10069 10057 10044 10034 10027 10023 10020 10018 10018 10020 10020 10026 10033 10039 10048 10059 10072 10084 10098 10111 10129 10143 10155 10166 10179
10542 10530 10515 10499 10482 10465 10445 10421 10396 10369 10342 10315 10288 10261 10238 10208 10181 10155 10133 10111 10094 10075 10059 10048 10035 10025 10019 10014 10011 10009 10011 10012 10014 10018 10025 10031 10042 10054 10066 10076 10089 10106 10122 10135 10146 10158 10171
10529 10516 10501 10484 10468 10450 10426 10405 10379 10354 10327 10298 10271 10244 10223 10197 10168 10147 10122 10101 10083 10066 10051 10037 10028 10019 10011 10007 10005 10004 10007 10010 10012 10013 10022 10028 10036 10047 10058 10072 10087 10102 10116 10127 10138 10155 10171
10515 10502 10487 10470 10451 10431 10413 10388 10363 10336 10311 10281 10252 10225 10207 10185 10156 10134 10113 10092 10073 10058 10044 10031 10022 10014 10007 10003 10002 9999 10002 10004 10007 10010 10020 10024 10029 10039 10052 10065 10081 10097 10108 10125 10138 10154 10164
10504 10489 10474 10457 10438 10419 10396 10375 10348 10321 10295 10266 10236 10212 10191 10169 10149 10123 10102 10083 10065 10052 10038 10027 10018 10010 10004 10001 10000 9997 9998 10002 10003 10010 10017 10022 10027 10039 10051 10065 10077 10095 10111 10127 10139 10151 10159
10491 10476 10461 10444 10425 10404 10383 10361 10338 10306 10280 10251 10222 10200 10180 10158 10137 10115 10094 10075 10058 10044 10032 10023 10015 10007 10002 10000 9998 9996 9997 9998 10001 10009 10014 10021 10029 10040 10051 10061 10076 10096 10112 10125 10135 10148 10160
10476 10464 10447 10430 10409 10391 10370 10346 10322 10294 10267 10238 10211 10187 10165 10145 10127 10105 10085 10067 10053 10040 10030 10020 10012 10006 10002 9999 9997 9996 9995 9998 10002 10008 10012 10019 10033 10045 10053 10068 10079 10094 10107 10122 10134 10146 10158